Date,TemperatureHighF,TemperatureAvgF,TemperatureLowF,DewpointHighF,DewpointAvgF,DewpointLowF,HumidityHigh,HumidityAvg,HumidityLow,PressureMaxIn,PressureMinIn,WindSpeedMaxMPH,WindSpeedAvgMPH,GustSpeedMaxMPH,PrecipitationSumIn
2013-3-1,57,42,30,37,34,27,94,75,39,30.48,30.31,8,3,14,0.01
2013-3-2,51,38,30,36,31,27,92,76,43,30.32,30.11,9,3,18,0.00
2013-3-3,44,35,25,33,21,10,90,62,26,30.18,30.09,11,4,22,0.00
2013-3-4,52,32,16,23,19,14,92,63,29,30.21,29.98,7,2,15,0.00
2013-3-5,44,35,25,34,27,21,87,75,55,29.98,29.63,10,3,24,0.00
2013-3-6,36,32,27,32,28,23,95,86,70,29.95,29.49,15,5,26,0.07
2013-3-7,43,30,17,30,24,15,93,79,49,30.08,29.96,8,2,17,0.01
2013-3-8,43,31,22,31,26,21,94,81,51,30.22,30.00,12,3,21,0.01
2013-3-9,53,32,16,25,20,14,93,67,25,30.52,30.21,11,2,17,0.01
2013-3-10,57,36,19,34,25,17,92,69,28,30.54,30.39,9,3,18,0.00
2013-3-11,53,42,31,39,36,29,94,80,58,30.42,30.20,9,3,18,0.00
2013-3-12,60,43,29,38,29,19,96,66,21,30.24,30.12,10,4,19,0.00
2013-3-13,64,45,31,36,30,27,85,59,27,30.19,30.09,7,2,15,0.00
2013-3-14,62,43,28,35,28,23,90,62,24,30.18,30.06,11,4,22,0.00
2013-3-15,56,42,30,38,31,26,91,68,31,30.19,30.09,8,3,15,0.00
2013-3-16,45,36,30,33,30,27,95,80,54,30.12,29.94,14,7,26,0.00
2013-3-17,36,30,25,27,21,16,83,69,57,30.22,29.99,13,8,29,0.00
2013-3-18,52,35,26,26,20,11,86,60,21,30.25,30.12,9,3,17,0.00
2013-3-19,53,37,26,40,28,20,94,71,36,30.15,29.77,10,3,26,0.10
2013-3-20,42,37,28,39,33,22,93,85,71,30.04,29.60,20,9,36,0.27
2013-3-21,36,29,24,25,22,17,88,75,57,30.25,30.04,14,6,30,0.01
2013-3-22,35,27,20,22,18,13,90,69,41,30.34,30.22,11,4,21,0.05
2013-3-23,46,28,15,21,16,13,92,66,29,30.37,30.24,11,2,15,0.01
2013-3-24,49,34,22,27,23,19,98,66,41,30.28,30.10,10,3,17,0.00
2013-3-25,54,39,28,32,28,24,87,66,42,30.10,29.87,10,4,16,0.00
2013-3-26,50,39,32,38,34,30,95,83,59,29.93,29.88,10,4,14,0.00
2013-3-27,54,39,29,42,35,28,97,85,49,29.97,29.87,9,2,17,0.04
2013-3-28,55,42,33,42,37,32,96,84,49,30.10,29.96,10,1,16,0.10
2013-3-29,61,45,35,42,38,34,97,79,45,30.19,30.10,8,2,14,0.09
2013-3-30,69,47,27,43,35,-100,96,70,32,30.21,30.01,9,3,20,0.00
2013-3-31,63,48,34,45,38,32,93,71,39,30.01,29.84,13,5,22,0.00